Regional Weather Roundup
Issued by NWS

Home | Current Version | Previous Version | Graphics & Text | Print | Product List | Glossary On
Versions: 1 2 3 4 5 6 7 8 9 10 11 12 13 14 15 16 17 18 19 20 21 22 23 24 25 26 27 28 29 30 31 32 33 34 35 36 37 38 39 40 41 42 43 44 45 46 47 48 49 50
000
ASUS43 KOAX 260502
RWRNE

WEATHER ROUNDUP FOR NEBRASKA
NATIONAL WEATHER SERVICE OMAHA NE
1100 PM CST TUE NOV 25 2014

NOTES: SATELLITE DATA IS BEING USED TO AUGMENT CLOUD COVER ABOVE
       12000 FEET.
       "FAIR" INDICATES FEW OR NO CLOUDS BELOW 12,000 FEET WITH NO
       SIGNIFICANT WEATHER AND/OR OBSTRUCTIONS TO VISIBILITY.

  * THESE STATIONS DO NOT REPORT WEATHER SUCH AS RAIN...SNOW OR FOG.

NEZ001>004-019>022-054>056-260600-
NEBRASKA PANHANDLE

CITY           SKY/WX    TMP DP  RH WIND       PRES   REMARKS
SCOTTSBLUFF    CLOUDY    32  31  96 NW15      30.06R WCI  22
ALLIANCE       CLOUDY    34  21  59 NW20G29   29.97R WCI  23
CHADRON        CLOUDY    43  24  47 NW24G35   30.01R
SIDNEY         CLOUDY    32  30  92 NW15      30.04R WCI  22
$$

NEZ057>060-069>072-079>082-260600-
SOUTHWEST NEBRASKA

CITY           SKY/WX    TMP DP  RH WIND       PRES   REMARKS
NORTH PLATTE   CLOUDY    38  31  76 NW13      29.95R WCI  30
IMPERIAL       CLOUDY    39  30  70 NW24      30.00R WCI  28
MCCOOK         CLOUDY    42  30  62 NW10      29.97R
$$

NEZ005>010-023>029-035>040-094-260600-
NORTH CENTRAL NEBRASKA

CITY           SKY/WX    TMP DP  RH WIND       PRES   REMARKS
VALENTINE      CLOUDY    37  25  61 NW16G23   29.90R WCI  28
BROKEN BOW     CLOUDY    39  30  70 NW18      29.90R WCI  30
ORD            PTCLDY    38  30  73 NW15      29.87R WCI  29
$$

NEZ041-046>049-061>064-073>077-083>087-260600-
SOUTH CENTRAL NEBRASKA

CITY           SKY/WX    TMP DP  RH WIND       PRES   REMARKS
GRAND ISLAND   CLOUDY    39  30  70 NW15      29.88R WCI  31
AURORA         CLOUDY    40  30  67 NW14      29.87R WCI  32
HASTINGS       CLOUDY    40  29  64 NW8       29.88R WCI  34
KEARNEY *      CLOUDY    39  28  65 W13       29.90S WCI  32
YORK           CLOUDY    39  28  65 NW16      29.86R WCI  30
$$

NEZ011>018-030>034-042>045-260600-
NORTHEAST NEBRASKA

CITY           SKY/WX    TMP DP  RH WIND       PRES   REMARKS
NORFOLK        LGT RAIN  39  32  76 NW12      29.81R WCI  32
COLUMBUS *     CLOUDY    41  28  60 NW17G23   29.84R
TEKAMAH        LGT RAIN  37  30  75 SE12      29.85F WCI  29
WAYNE          DRIZZLE   38  33  82 W5        29.81R WCI  35
$$

NEZ050>053-065>068-078-088>093-260600-
SOUTHEAST NEBRASKA

CITY           SKY/WX    TMP DP  RH WIND       PRES   REMARKS
LINCOLN        LGT RAIN  43  26  51 S16G24    29.86R
OMAHA EPPLEY   CLOUDY    39  26  59 S12       29.87F WCI  32
FALLS CITY     CLOUDY    40  24  53 S15       29.91F WCI  32
NEBRASKA CITY  CLOUDY    39  21  49 S13       29.88F WCI  31
$$

NEZ044-045-051>053-067-260600-
OMAHA AREA

CITY           SKY/WX    TMP DP  RH WIND       PRES   REMARKS
OMAHA EPPLEY   CLOUDY    39  26  59 S12       29.87F WCI  32
MILLARD        CLOUDY    40  26  58 SE12      29.86F WCI  33
OFFUTT AFB     CLOUDY    38  25  59 SE13      29.87S WCI  30
WAHOO          CLOUDY    40  27  59 SW16G22   29.83F WCI  31
$$


USA.gov is the U.S. government's official web portal to all federal, state and local government web resources and services.